Location: Forestville
(38.4740°N, 122.8890°W)
Time: 12:00:26
(UTC-08:00)

Amateur Radio Satellites - All Passes

Search period start: 01 March 2017 11:30
Search period end: 02 March 2017 11:30
Location: Forestville, 38.4740°N, 122.8890°W

Satellite Date Start Highest point End Downlink Frequencies (MHz)
Time Altitude Azimuth
AIST 2D 01 Mar 11:31:02 11:33:58 24° 264° (W) 11:36:57 435.315
VELOX 1 01 Mar 11:34:13 11:37:28 20° 94° (E) 11:40:43 145.980
LO-87 01 Mar 11:38:03 11:41:28 41° 286° (WNW) 11:44:53 145.935 - 145.965
Oscar 19 01 Mar 11:41:30 11:44:57 19° 64° (ENE) 11:48:26 437.125/150
AO-85 01 Mar 11:44:40 11:48:20 37° 54° (NE) 11:52:02 145.980
50 SAT 01 Mar 11:47:40 11:49:47 15° 94° (E) 11:51:53 437.505
DUCHIFAT 1 01 Mar 12:11:59 12:15:13 22° 265° (W) 12:18:30 145.980
YUBILEINY 01 Mar 12:12:50 12:18:29 18° 296° (WNW) 12:24:10 435.215
EO-79 01 Mar 12:30:18 12:31:50 12° 269° (W) 12:33:23 145.935-145.965
ISS 01 Mar 12:38:42 12:41:55 46° 35° (NE) 12:45:06 437.550
SPROUT 01 Mar 12:42:16 12:46:36 81° 283° (WNW) 12:50:54 437.525
DX 1 01 Mar 12:45:37 12:49:53 53° 100° (E) 12:54:09 434.975-435.025
UKube-1 01 Mar 12:48:19 12:52:23 39° 99° (E) 12:56:26 .
BUGSAT 1 01 Mar 12:49:48 12:53:02 23° 265° (W) 12:56:19 437.445
Tancredo 1 01 Mar 12:52:26 12:55:40 67° 37° (NE) 12:58:51 437.200
Gurwin Techsat 1B 01 Mar 13:02:01 13:07:13 60° 73° (ENE) 13:12:27 435.225
ESTCUBE 1 01 Mar 13:06:50 13:08:59 13° 296° (WNW) 13:11:08 437.505/2401.250
VELOX 1 01 Mar 13:09:59 13:13:58 34° 289° (WNW) 13:17:58 145.980
Oscar 19 01 Mar 13:18:51 13:23:51 51° 260° (W) 13:28:52 437.125/150
50 SAT 01 Mar 13:19:58 13:22:54 26° 289° (WNW) 13:25:49 437.505
BEESAT 3 01 Mar 13:21:35 13:25:01 26° 51° (NE) 13:28:26 437.485
AO-85 01 Mar 13:25:57 13:28:24 16° 249° (WSW) 13:30:53 145.980
AO-7 01 Mar 13:27:46 13:34:32 29° 57° (ENE) 13:41:17 .
ITAMSAT 1 01 Mar 14:03:05 14:07:54 40° 70° (ENE) 14:12:46 435.822/435.867
BEESAT 2 01 Mar 14:10:12 14:13:58 35° 53° (NE) 14:17:40 435.950
PCSat 01 Mar 14:14:33 14:18:55 25° 107° (ESE) 14:23:18 145.827
ISS 01 Mar 14:15:58 14:18:08 16° 230° (SW) 14:20:17 437.550
DX 1 01 Mar 14:23:26 14:25:36 14° 296° (WNW) 14:27:46 434.975-435.025
UKube-1 01 Mar 14:25:16 14:28:05 17° 294° (WNW) 14:30:55 .
MOZHAYETS 4 01 Mar 14:27:47 14:28:42 11° 90° (E) 14:29:38
Tancredo 1 01 Mar 14:30:40 14:31:29 11° 233° (SW) 14:32:17 437.200
ITUPSAT 1 01 Mar 14:43:02 14:47:39 46° 100° (E) 14:52:13 437.325
Gurwin Techsat 1B 01 Mar 14:44:25 14:47:32 16° 268° (W) 14:50:40 435.225
BEESAT 01 Mar 14:46:19 14:50:58 51° 100° (E) 14:55:36 436.000
RS-15 01 Mar 14:47:39 14:55:43 22° 99° (E) 15:03:57 29.354- 29.394
BEESAT 3 01 Mar 14:59:12 15:02:32 25° 247° (WSW) 15:05:50 437.485
NO-84 01 Mar 15:00:56 15:03:50 45° 131° (SE) 15:06:59 435.350 FM
AO-7 01 Mar 15:18:23 15:26:40 65° 256° (WSW) 15:34:59 .
ITAMSAT 1 01 Mar 15:43:24 15:47:28 23° 265° (W) 15:51:35 435.822/435.867
BEESAT 2 01 Mar 15:48:36 15:51:28 19° 249° (WSW) 15:54:19 435.950
PCSat 01 Mar 15:56:57 16:02:03 42° 304° (NW) 16:07:11 145.827
KKS-1 01 Mar 15:57:47 16:01:30 25° 96° (E) 16:05:11 437.445
MOZHAYETS 4 01 Mar 16:01:43 16:06:17 67° 285° (WNW) 16:10:48
STARS 01 Mar 16:18:37 16:21:43 18° 94° (E) 16:24:48 437.465
ITUPSAT 1 01 Mar 16:21:51 16:25:05 18° 295° (WNW) 16:28:19 437.325
BEESAT 01 Mar 16:25:20 16:28:18 17° 296° (WNW) 16:31:16 436.000
LilacSat-2 01 Mar 16:35:36 16:37:54 15° 67° (ENE) 16:40:12 437.200
NO-84 01 Mar 16:39:25 16:41:42 18° 330° (NNW) 16:44:07 435.350 FM
M-CUBED/EXP-1 PRIME 01 Mar 16:44:02 16:45:36 12° 98° (E) 16:47:12 437.505
RS-15 01 Mar 16:54:28 17:06:23 89° 119° (ESE) 17:18:49 29.354- 29.394
DOVE 4 01 Mar 16:59:01 17:02:43 32° 71° (ENE) 17:06:30 437.250
KAITUO 1B 01 Mar 17:11:24 17:14:47 31° 72° (ENE) 17:18:10 145.475/437.950
CUBESAT XI-V 01 Mar 17:14:10 17:18:45 73° 285° (WNW) 17:23:19 437.345
XW-2F 01 Mar 17:24:02 17:27:46 55° 75° (ENE) 17:31:34 145.980 - 146.000
CUTE-I 01 Mar 17:25:10 17:30:24 60° 73° (ENE) 17:35:41 437.470
XW-2D 01 Mar 17:31:40 17:35:31 75° 77° (ENE) 17:39:23 145.860 - 145.880
KKS-1 01 Mar 17:34:10 17:37:59 28° 291° (WNW) 17:41:47 437.445
XW-2B 01 Mar 17:36:50 17:40:41 84° 75° (ENE) 17:44:34 145.730 - 145.750
NUDT-PHONESAT 01 Mar 17:39:48 17:43:33 74° 76° (ENE) 17:47:20 437.300
XW-2C 01 Mar 17:45:44 17:49:34 73° 259° (WSW) 17:53:26 145.795 - 145.815
STARS 01 Mar 17:54:04 17:58:09 37° 289° (WNW) 18:02:13 437.465
SEEDS 01 Mar 17:59:52 18:00:38 10° 64° (ENE) 18:01:24 437.485
LilacSat-2 01 Mar 18:08:17 18:11:51 35° 262° (W) 18:15:27 437.200
M-CUBED/EXP-1 PRIME 01 Mar 18:16:20 18:20:12 53° 290° (WNW) 18:24:21 437.505
CUBEBUG 2 01 Mar 18:20:13 18:22:31 14° 64° (ENE) 18:24:50 437.445
HO-68 01 Mar 18:24:51 18:31:45 52° 68° (ENE) 18:38:39 435.675
DOVE 4 01 Mar 18:37:44 18:40:31 18° 267° (W) 18:43:22 437.250
CUTE 1.7 + AOD 2 01 Mar 18:43:54 18:48:03 52° 74° (ENE) 18:52:12 437.475
UWE-3 01 Mar 18:46:25 18:49:15 17° 65° (ENE) 18:52:08 435.000/436.395/437.385
KAITUO 1B 01 Mar 18:46:29 18:48:51 16° 267° (W) 18:51:14 145.475/437.950
ZACube-1 01 Mar 18:57:05 18:59:00 13° 63° (ENE) 19:00:55 437.345
AAUSAT CUBESAT 2 01 Mar 19:06:29 19:10:03 29° 71° (ENE) 19:13:38 437.432
CUTE-I 01 Mar 19:07:39 19:10:49 16° 268° (W) 19:14:00 437.470
XW-2A 01 Mar 19:07:39 19:10:54 42° 261° (W) 19:14:11 145.665 - 145.685
RS-15 01 Mar 19:10:12 19:20:40 32° 325° (NW) 19:31:24 29.354- 29.394
SEEDS 01 Mar 19:31:32 19:35:45 65° 259° (W) 19:39:57 437.485
STRAND 1 01 Mar 19:39:18 19:44:30 83° 105° (ESE) 19:49:37 437.568
AO-73 01 Mar 19:40:06 19:44:07 32° 70° (ENE) 19:48:10 145.935
Oscar 11 01 Mar 19:40:47 19:44:29 28° 70° (ENE) 19:48:13 .
CUBEBUG 2 01 Mar 19:54:09 19:58:33 57° 260° (W) 20:03:08 437.445
DELFI C3 01 Mar 19:56:45 19:58:04 11° 65° (ENE) 19:59:23 145.870
HO-68 01 Mar 20:13:44 20:19:41 28° 265° (W) 20:25:40 435.675
SO-50 01 Mar 20:15:05 20:19:06 29° 113° (ESE) 20:23:05 436.795
UWE-3 01 Mar 20:20:56 20:25:16 47° 261° (W) 20:29:43 435.000/436.395/437.385
CUTE 1.7 + AOD 2 01 Mar 20:22:31 20:24:09 12° 269° (W) 20:25:49 437.475
YUBILEINY 01 Mar 20:24:07 20:32:14 41° 74° (ENE) 20:40:15 435.215
ZACube-1 01 Mar 20:30:14 20:34:40 63° 259° (W) 20:39:14 437.345
AAUSAT CUBESAT 2 01 Mar 20:42:24 20:45:31 20° 266° (W) 20:48:37 437.432
JUGNU 01 Mar 20:48:00 20:49:56 12° 180° (S) 20:51:52 437.505
O/OREOS (USA 219) 01 Mar 20:48:01 20:51:09 19° 100° (E) 20:54:18 437.305
PRISM 01 Mar 20:58:48 21:01:59 22° 96° (E) 21:05:10 437.425
TIGRISAT 01 Mar 21:06:59 21:08:31 11° 90° (E) 21:10:03 435.000
UNISAT 6 01 Mar 21:07:45 21:09:53 13° 90° (E) 21:12:00 437.425
AO-73 01 Mar 21:16:53 21:20:21 22° 266° (W) 21:23:53 145.935
Oscar 11 01 Mar 21:17:05 21:20:34 23° 265° (W) 21:24:05 .
STRAND 1 01 Mar 21:21:04 21:22:55 12° 300° (WNW) 21:24:45 437.568
DELFI C3 01 Mar 21:28:33 21:32:24 50° 260° (W) 21:36:15 145.870
RS-15 01 Mar 21:30:58 21:38:55 19° 360° (N) 21:46:51 29.354- 29.394
NO-84 01 Mar 21:35:41 21:38:57 24° 34° (NE) 21:42:25 435.350 FM
SO-50 01 Mar 21:55:19 21:59:28 31° 309° (NW) 22:03:36 436.795
SRMSAT 01 Mar 21:58:07 21:59:04 10° 172° (S) 22:00:02 437.500
LO-87 01 Mar 22:12:23 22:15:50 56° 75° (ENE) 22:19:20 145.935 - 145.965
YUBILEINY 01 Mar 22:21:01 22:28:56 41° 273° (W) 22:36:50 435.215
FO-29 01 Mar 22:21:17 22:28:16 43° 96° (E) 22:34:29 435.910
O/OREOS (USA 219) 01 Mar 22:26:06 22:30:14 36° 297° (WNW) 22:34:25 437.305
ESTCUBE 1 01 Mar 22:26:09 22:30:23 42° 72° (ENE) 22:34:39 437.505/2401.250
VELOX 1 01 Mar 22:30:50 22:33:25 16° 65° (ENE) 22:36:00 145.980
PRISM 01 Mar 22:33:47 22:37:13 27° 290° (WNW) 22:40:40 437.425
TIGRISAT 01 Mar 22:40:58 22:45:37 64° 285° (WNW) 22:50:10 435.000
UNISAT 6 01 Mar 22:42:20 22:46:56 57° 286° (WNW) 22:51:26 437.425
NANOSAT C BR1 01 Mar 22:53:09 22:55:03 13° 92° (E) 22:56:57 145.865
AIST 2D 01 Mar 22:57:25 23:00:22 24° 96° (E) 23:03:18 435.315
POLYITAN 1 01 Mar 22:57:59 23:00:41 16° 93° (E) 23:03:22 437.675
QB50P2 01 Mar 23:00:53 23:03:57 19° 94° (E) 23:06:59 145.880/145.840
PCSat 01 Mar 23:03:40 23:07:19 18° 46° (NE) 23:10:57 145.827
NO-84 01 Mar 23:12:50 23:16:50 51° 229° (SW) 23:21:02 435.350 FM
SPROUT 01 Mar 23:33:48 23:38:00 61° 74° (ENE) 23:42:14 437.525
DX 1 01 Mar 23:39:38 23:43:36 37° 71° (ENE) 23:47:36 434.975-435.025
UKube-1 01 Mar 23:41:29 23:45:08 28° 69° (ENE) 23:48:48 .
SRMSAT 01 Mar 23:45:10 23:47:20 12° 182° (S) 23:49:29 437.500
RS-15 01 Mar 23:46:31 23:57:12 32° 35° (NE) 00:07:32 29.354- 29.394
50 SAT 01 Mar 23:51:39 23:55:08 88° 76° (ENE) 23:58:37 437.505
DUCHIFAT 1 01 Mar 23:56:08 00:00:22 64° 101° (E) 00:04:35 145.980
ESTCUBE 1 02 Mar 00:04:31 00:07:21 16° 267° (W) 00:10:12 437.505/2401.250
VELOX 1 02 Mar 00:05:16 00:09:28 45° 261° (W) 00:13:41 145.980
FO-29 02 Mar 00:06:30 00:13:01 35° 296° (WNW) 00:18:58 435.910
EO-79 02 Mar 00:13:10 00:17:26 66° 285° (WNW) 00:21:40 145.935-145.965
NANOSAT C BR1 02 Mar 00:26:53 00:31:01 49° 287° (WNW) 00:35:08 145.865
AIST 2D 02 Mar 00:31:01 00:33:24 17° 291° (WNW) 00:35:46 435.315
BUGSAT 1 02 Mar 00:31:46 00:35:57 54° 100° (E) 00:40:07 437.445
POLYITAN 1 02 Mar 00:32:36 00:36:36 39° 288° (WNW) 00:40:35 437.675
QB50P2 02 Mar 00:35:56 00:39:47 33° 289° (WNW) 00:43:38 145.880/145.840
PCSat 02 Mar 00:45:51 00:51:16 72° 245° (WSW) 00:56:39 145.827
SPROUT 02 Mar 01:13:52 01:14:16 10° 270° (W) 01:14:42 437.525
DX 1 02 Mar 01:17:02 01:19:54 17° 266° (W) 01:22:46 434.975-435.025
UKube-1 02 Mar 01:17:42 01:21:07 23° 264° (W) 01:24:34 .
Gurwin Techsat 1B 02 Mar 01:20:13 01:24:39 26° 95° (E) 01:29:02 435.225
Oscar 19 02 Mar 01:31:38 01:36:43 62° 101° (ESE) 01:41:47 437.125/150
DUCHIFAT 1 02 Mar 01:34:20 01:35:28 11° 297° (WNW) 01:36:36 145.980
ITUPSAT 1 02 Mar 01:48:07 01:52:42 45° 71° (ENE) 01:57:18 437.325
BEESAT 02 Mar 01:51:02 01:55:38 50° 72° (ENE) 02:00:16 436.000
AO-85 02 Mar 01:58:21 02:01:36 19° 112° (ESE) 02:04:42 145.980
RS-15 02 Mar 01:59:06 02:11:29 89° 241° (WSW) 02:23:15 29.354- 29.394
BUGSAT 1 02 Mar 02:08:56 02:10:49 13° 296° (WNW) 02:12:43 437.445
ITAMSAT 1 02 Mar 02:18:37 02:21:40 16° 92° (E) 02:24:43 435.822/435.867
KKS-1 02 Mar 02:54:51 02:58:03 20° 67° (ENE) 03:01:17 437.445
Gurwin Techsat 1B 02 Mar 02:59:46 03:04:37 36° 291° (WNW) 03:09:25 435.225
MOZHAYETS 4 02 Mar 03:01:34 03:06:13 85° 254° (WSW) 03:10:53
Oscar 19 02 Mar 03:12:32 03:15:30 16° 297° (WNW) 03:18:27 437.125/150
STARS 02 Mar 03:14:39 03:17:02 14° 64° (ENE) 03:19:24 437.465
AO-7 02 Mar 03:21:43 03:29:40 48° 101° (E) 03:37:33 .
ITUPSAT 1 02 Mar 03:27:32 03:30:42 17° 267° (W) 03:33:54 437.325
BEESAT 02 Mar 03:30:47 03:33:40 16° 267° (W) 03:36:33 436.000
AO-85 02 Mar 03:37:28 03:41:47 41° 305° (NW) 03:45:48 145.980
ITAMSAT 1 02 Mar 03:56:21 04:01:30 59° 287° (WNW) 04:06:36 435.822/435.867
RS-15 02 Mar 04:13:58 04:22:08 22° 261° (W) 04:30:07 29.354- 29.394
CUBESAT XI-V 02 Mar 04:15:32 04:20:11 89° 257° (WSW) 04:24:51 437.345
KKS-1 02 Mar 04:30:19 04:34:21 35° 262° (W) 04:38:26 437.445
BEESAT 3 02 Mar 04:46:48 04:50:40 72° 118° (ESE) 04:54:37 437.485
SO-50 02 Mar 04:47:50 04:51:05 19° 46° (NE) 04:54:19 436.795
STARS 02 Mar 04:48:41 04:52:54 50° 260° (W) 04:57:12 437.465
DOVE 4 02 Mar 05:00:02 05:02:00 12° 91° (E) 05:03:59 437.250
M-CUBED/EXP-1 PRIME 02 Mar 05:01:51 05:04:59 46° 255° (WSW) 05:08:10 437.505
AO-7 02 Mar 05:14:47 05:22:12 38° 299° (WNW) 05:29:35 .
ISS 02 Mar 05:17:42 05:20:38 30° 134° (SE) 05:23:35 437.550
STRAND 1 02 Mar 05:18:17 05:20:16 12° 60° (ENE) 05:22:14 437.568
XW-2C 02 Mar 05:21:32 05:23:16 13° 92° (E) 05:24:58 145.795 - 145.815
Tancredo 1 02 Mar 05:28:47 05:31:52 42° 136° (SE) 05:34:58 437.200
BEESAT 2 02 Mar 05:37:15 05:41:10 78° 301° (WNW) 05:45:11 435.950
LilacSat-2 02 Mar 05:43:05 05:46:17 25° 96° (E) 05:49:27 437.200
CUTE-I 02 Mar 05:44:10 05:48:41 27° 95° (E) 05:53:09 437.470
KAITUO 1B 02 Mar 06:17:36 06:21:17 53° 100° (E) 06:24:55 145.475/437.950
BEESAT 3 02 Mar 06:27:16 06:28:45 12° 317° (NW) 06:30:15 437.485
SO-50 02 Mar 06:27:28 06:31:48 49° 244° (WSW) 06:36:06 436.795
XW-2F 02 Mar 06:31:38 06:35:27 79° 283° (WNW) 06:39:12 145.980 - 146.000
XW-2A 02 Mar 06:32:36 06:34:00 12° 92° (E) 06:35:23 145.665 - 145.685
DOVE 4 02 Mar 06:35:08 06:40:01 70° 285° (WNW) 06:45:08 437.250
XW-2D 02 Mar 06:39:49 06:43:34 57° 285° (WNW) 06:47:16 145.860 - 145.880
XW-2B 02 Mar 06:45:03 06:48:45 50° 286° (WNW) 06:52:25 145.730 - 145.750
NUDT-PHONESAT 02 Mar 06:45:41 06:49:23 61° 284° (WNW) 06:53:03 437.300
STRAND 1 02 Mar 06:53:33 06:58:42 81° 257° (WSW) 07:03:53 437.568
XW-2C 02 Mar 06:54:04 06:57:37 38° 287° (WNW) 07:01:08 145.795 - 145.815
ISS 02 Mar 06:54:11 06:57:06 28° 330° (NNW) 07:00:02 437.550
O/OREOS (USA 219) 02 Mar 06:58:08 07:02:12 30° 62° (ENE) 07:06:14 437.305
Tancredo 1 02 Mar 07:05:36 07:08:14 23° 332° (NNW) 07:10:54 437.200
SEEDS 02 Mar 07:17:22 07:20:37 22° 95° (E) 07:23:50 437.485
LilacSat-2 02 Mar 07:17:34 07:20:24 20° 291° (WNW) 07:23:12 437.200
CUTE-I 02 Mar 07:23:51 07:28:45 36° 291° (WNW) 07:33:37 437.470
HO-68 02 Mar 07:41:21 07:48:26 63° 103° (ESE) 07:55:30 435.675
CUBEBUG 2 02 Mar 07:46:32 07:50:52 34° 96° (E) 07:55:06 437.445
PRISM 02 Mar 07:47:52 07:49:55 14° 65° (ENE) 07:51:57 437.425
XW-2A 02 Mar 08:03:45 08:06:52 32° 287° (WNW) 08:09:59 145.665 - 145.685
CUTE 1.7 + AOD 2 02 Mar 08:05:45 08:09:55 61° 285° (WNW) 08:14:02 437.475
UNISAT 6 02 Mar 08:06:55 08:07:34 10° 61° (ENE) 08:08:13 437.425
UWE-3 02 Mar 08:11:59 08:16:21 39° 98° (E) 08:20:35 435.000/436.395/437.385
ZACube-1 02 Mar 08:20:28 08:24:21 28° 95° (E) 08:28:10 437.345
AAUSAT CUBESAT 2 02 Mar 08:24:36 08:28:41 66° 101° (E) 08:32:46 437.432
FO-29 02 Mar 08:32:07 08:37:13 20° 58° (ENE) 08:42:29 435.910
O/OREOS (USA 219) 02 Mar 08:37:44 08:41:26 24° 258° (WSW) 08:45:08 437.305
SEEDS 02 Mar 08:52:45 08:56:16 27° 290° (WNW) 08:59:46 437.485
Oscar 11 02 Mar 09:04:36 09:08:55 70° 102° (ESE) 09:13:11 .
AO-73 02 Mar 09:05:06 09:09:37 83° 100° (E) 09:14:01 145.935
DELFI C3 02 Mar 09:07:37 09:10:36 20° 95° (E) 09:13:34 145.870
PRISM 02 Mar 09:20:54 09:24:47 45° 260° (W) 09:28:42 437.425
YUBILEINY 02 Mar 09:22:50 09:31:11 50° 89° (E) 09:39:30 435.215
CUBEBUG 2 02 Mar 09:23:32 09:27:14 23° 292° (WNW) 09:30:52 437.445
HO-68 02 Mar 09:30:05 09:35:36 25° 300° (WNW) 09:41:06 435.675
TIGRISAT 02 Mar 09:37:29 09:42:01 89° 250° (WSW) 09:46:42 435.000
UNISAT 6 02 Mar 09:38:59 09:43:32 80° 259° (WSW) 09:48:12 437.425
UWE-3 02 Mar 09:49:11 09:52:27 19° 294° (WNW) 09:55:40 435.000/436.395/437.385
POLYITAN 1 02 Mar 09:50:56 09:52:00 11° 63° (ENE) 09:53:04 437.675
QB50P2 02 Mar 09:53:20 09:55:10 13° 64° (ENE) 09:57:01 145.880/145.840
ZACube-1 02 Mar 09:56:50 10:00:30 25° 291° (WNW) 10:04:06 437.345
FO-29 02 Mar 10:13:50 10:21:09 86° 256° (WSW) 10:29:03 435.910
Tancredo 1 02 Mar 10:22:28 10:22:59 10° 13° (NNE) 10:23:30 437.200
AO-85 02 Mar 10:31:43 10:32:47 11° 43° (NE) 10:33:51 145.980
DELFI C3 02 Mar 10:42:06 10:45:21 25° 290° (WNW) 10:48:36 145.870
Oscar 11 02 Mar 10:43:56 10:44:25 10° 297° (WNW) 10:44:54 .
DUCHIFAT 1 02 Mar 10:46:19 10:50:12 37° 72° (ENE) 10:54:07 145.980
AIST 2D 02 Mar 11:02:39 11:06:09 59° 260° (W) 11:09:41 435.315
EO-79 02 Mar 11:03:35 11:07:48 74° 77° (ENE) 11:12:04 145.935-145.965
LO-87 02 Mar 11:13:58 11:17:35 90° 328° (NNW) 11:21:13 145.935 - 145.965
NANOSAT C BR1 02 Mar 11:16:51 11:21:04 85° 256° (WSW) 11:25:21 145.865
BUGSAT 1 02 Mar 11:20:07 11:23:41 29° 70° (ENE) 11:27:18 437.445
SPROUT 02 Mar 11:23:08 11:24:39 12° 91° (E) 11:26:08 437.525
